Regional Weather Roundup
Issued by NWS Newport/Morehead, NC

Current Version | Previous Version | Graphics & Text | Print | Product List | Glossary Off
Versions: 1 2 3 4 5 6 7 8 9 10 11 12 13 14 15 16 17 18 19 20 21 22 23 24 25 26 27 28 29 30 31 32 33 34 35 36 37 38 39 40 41 42 43 44 45 46 47 48 49 50

446
ASUS42 KMHX 240013
RWRMHX
WEATHER ROUNDUP FOR EASTERN NORTH CAROLINA
NATIONAL WEATHER SERVICE NEWPORT/MOREHEAD CITY NC
800 PM EDT MON OCT 23 2017

NOTE: "FAIR" INDICATES FEW OR NO CLOUDS BELOW 12,000 FEET
WITH NO SIGNIFICANT WEATHER AND/OR OBSTRUCTIONS TO VISIBILITY

NCZ015>017-031-032-045>047-102-103-240100-
NORTH COAST

CITY           SKY/WX    TMP DP  RH WIND       PRES   REMARKS
EDENTON        CLOUDY    75  68  79 S8G16     29.96F
ELIZABETH CITY CLOUDY    74  68  81 SE13G18   29.97F
KITTY HAWK     CLOUDY    74  66  77 SE8G16    29.99F
MANTEO         CLOUDY   N/A N/A N/A S13G20    30.01F

$$

NCZ045>047-081-094-103-104-240100-
CENTRAL COAST

CITY           SKY/WX    TMP DP  RH WIND       PRES   REMARKS
FRISCO         CLOUDY    77  69  76 S20G29    30.02S

$$

NCZ095-097-098-100-101-240100-
SOUTHERN COAST

CITY           SKY/WX    TMP DP  RH WIND       PRES   REMARKS
BEAUFORT       RAIN      73  72  96 SE17G31   29.95F FOG
CEDAR ISLAND   NOT AVBL
JACKSONVILLE   CLOUDY    75  73  93 S17       29.92F
PINEY ISLAND     N/A    N/A N/A N/A SE17G26   29.95F
WILMINGTON     PTCLDY    77  70  79 S13G25    29.92S


$$

NCZ011>013-027>030-043-044-078>080-089-090>093-098-240100-
COASTAL PLAIN

CITY           SKY/WX    TMP DP  RH WIND       PRES   REMARKS
AHOSKIE        MOCLDY    73  66  79 S16G23    29.92F
CLINTON        CLOUDY    74  69  84 SE5       29.88F
ELIZABETHTOWN  NOT AVBL
GOLDSBORO      CLOUDY    74  69  85 SE8       29.88S
GREENVILLE     MOCLDY    70  70 100 SE12      29.94F
HAVELOCK       LGT RAIN  73  72  96 S14G22    29.95F
KENANSVILLE    CLOUDY    73  70  88 SE6       29.90S
KINSTON        CLOUDY    72  70  94 S7        29.93S
NEW BERN       CLOUDY    71  71 100 SE10      29.95F
RICHLANDS      CLOUDY    74  70  87 SE8G18    29.92F
ROCKY MOUNT    CLOUDY    72  69  90 SE10G21   29.87F
WASHINGTON     CLOUDY    71  68  91 SE13G18   29.94F
WHITEVILLE     CLOUDY    75  70  85 SE10G21   29.86F

$$

AMZ130-135-150-152-154-156-158-170-250-252-270-ANZ085-086-088-633-658-670-240100-
MARINE OBSERVATIONS

STATION/POSITION TIME  TEMP    WIND        PRES    WAVE   SWELL
                       AIR SEA DIR/SP/G            HT/PER HT/PER
                 (UTC) (F)     (DEG/KT/KT) (MB)    (FT/S) (FT/S)
CHESAPEAKE LIGHT NOT AVBL
64 E VA BEACH    2350   74 69  170/ 21/ 25 1016.6    6/ 6   2/ 8
DUCK             2342      70              1014.9
2 E DUCK         0000      71                N/A     4/ 6
OREGON INLET     2342      72              1016.1
13E OREGON INLT  2348      72                N/A     5/ 6   5/ 6
HATTERAS CG      2342      74              1016.2
DIAMOND BUOY     2350   79 80  160/ 23/ 27 1016.2    6/ 6   2/ 9
CAPE LOOKOUT     0000   75     150/ 25/ 28 1013.9
BEAUFORT LAB     2342      74              1014.4
30 SE NEW RVR IN 2308   78     180/ 21/ 29 1014.6
30 SE NEW RVR IN NOT AVBL
27 SE WRIGHTSVLE 2308   77 76  160/ 19/ 27 1013.4
5 SE WRIGHTSVLE  2308   76 74  160/ 16/ 25 1013.5
225 S CAPE HAT   2350   78 80  130/ 16/ 19 1018.2    5/ 5   2/ 8
41 SE CHARLESTON 2350   81 80  170/ 27/ 37 1011.4    9/ 7

$$




USA.gov is the U.S. government's official web portal to all federal, state and local government web resources and services.